Probability
31 28 22 21 23 24 23 22 20 22 25 25 24 23 19 16 14 13 11 11 13 13 9 5 5 5 6 9 10 10 10 9 6 3 2 4 4 4 3 3 4 4 5
30 27 24 24 26 26 25 23 22 24 26 27 26 24 20 16 15 13 11 10 10 10 9 7 5 6 9 11 11 10 9 8 7 4 3 4 3 2 2 1 1 2 3
30 30 28 28 29 29 27 25 26 26 27 27 25 22 18 15 13 13 12 12 10 8 8 9 7 8 12 14 13 11 9 8 9 6 3 3 2 1 1 0 0 0 1
33 33 32 30 29 29 27 26 26 26 26 26 23 18 14 12 11 12 14 13 12 10 10 11 10 10 12 13 12 12 10 9 9 7 3 1 1 1 0 0 0 0 0
34 33 30 28 27 25 25 24 23 23 24 24 21 17 14 11 9 9 11 12 11 11 12 12 12 10 9 9 8 9 9 8 8 6 3 1 0 0 0 0 0 0 0
34 31 28 26 24 23 23 22 21 20 21 20 18 16 14 10 7 6 6 7 9 11 12 12 11 9 6 5 4 5 5 5 5 5 3 1 0 0 0 0 0 0 0
32 30 27 25 23 23 23 21 19 19 18 16 15 15 13 9 6 3 3 5 8 10 11 11 9 6 5 4 3 2 1 2 2 2 2 1 0 0 0 0 1 1 0
30 29 27 24 22 23 22 20 18 17 15 13 13 12 11 9 6 2 3 6 8 9 9 9 8 5 3 3 2 1 0 0 0 0 0 0 0 0 0 1 2 2 1
29 28 25 22 21 21 20 17 15 14 13 11 11 10 10 9 6 3 3 7 8 8 7 7 6 4 2 1 1 1 1 0 0 0 0 0 0 0 1 2 3 3 3
27 26 23 20 19 18 17 15 13 11 11 10 10 10 10 9 6 3 3 7 8 6 6 6 5 3 1 0 2 3 2 1 1 1 1 1 1 1 1 3 3 3 3
23 22 20 17 16 16 15 13 12 10 10 10 10 9 9 8 6 3 3 5 6 6 6 5 4 2 1 0 1 3 2 1 1 2 2 2 2 2 2 3 3 3 3
20 18 16 13 12 13 13 12 11 10 10 10 9 9 8 7 6 3 2 2 4 6 6 5 3 1 0 0 0 1 1 0 1 1 1 1 1 1 1 2 3 3 3
17 15 12 11 10 11 12 12 11 10 10 9 9 7 7 6 6 3 1 0 2 4 5 4 2 0 0 0 0 0 0 0 0 0 0 0 0 0 0 1 1 2 2
14 12 10 9 9 10 11 11 10 9 9 8 7 7 6 6 5 4 2 1 1 2 2 1 0 0 0 0 0 0 0 0 0 0 0 0 0 0 0 0 0 1 1
11 10 9 8 8 8 8 8 8 7 7 6 6 6 5 4 4 3 3 2 2 1 0 0 0 0 0 0 0 0 0 0 0 0 0 0 0 0 0 0 0 0 0
10 9 7 7 7 7 6 6 5 5 4 3 3 3 3 3 3 2 2 2 1 1 0 0 0 0 0 0 0 0 0 0 0 0 0 0 0 0 0 0 0 0 0
10 8 6 6 6 6 6 6 6 5 4 2 1 1 1 1 2 1 0 0 0 0 0 0 0 0 0 0 0 0 0 0 0 0 0 0 0 0 0 0 0 0 0
9 7 5 4 4 4 5 6 6 6 4 3 2 1 0 0 0 0 0 1 1 1 1 0 0 0 0 0 0 0 0 0 0 0 0 0 0 0 0 0 0 0 0
6 5 3 3 3 3 4 5 6 6 4 3 3 2 1 0 0 0 1 2 2 1 1 1 1 0 0 0 0 0 0 0 0 0 0 0 0 0 0 0 0 0 0
6 4 3 3 3 3 3 4 4 5 4 3 3 3 2 2 2 1 1 2 3 3 2 2 2 1 0 0 0 0 0 0 0 0 0 0 0 0 0 0 0 0 0
6 5 4 3 3 3 3 3 4 4 4 3 3 3 3 3 3 2 1 2 3 3 3 3 3 1 0 0 0 0 0 0 0 0 0 0 0 0 0 0 0 0 0
6 6 4 3 3 3 3 3 4 4 3 2 2 2 2 3 3 3 3 3 3 3 3 3 3 2 0 0 0 0 0 0 0 0 0 0 0 0 0 0 0 0 0
6 5 4 3 2 2 2 2 3 2 1 1 1 1 1 2 3 3 3 3 3 3 3 3 2 1 0 0 0 0 0 0 0 0 0 0 0 0 0 0 0 0 0
4 4 3 1 1 0 1 1 1 1 0 0 0 0 0 1 1 2 3 3 3 2 2 1 1 0 0 0 0 0 0 0 0 0 0 0 0 0 0 0 0 0 0
3 3 2 1 0 0 0 0 0 0 0 0 0 0 0 0 0 1 1 2 1 1 1 0 0 0 0 0 0 0 0 0 0 0 0 0 0 0 0 0 0 0 0
3 3 2 1 0 0 0 0 0 0 0 0 0 0 0 0 0 0 0 1 0 0 0 0 0 0 0 0 0 0 0 0 0 0 0 0 0 0 0 0 0 0 0
Wind_Speed
6 5 5 4 4 4 3 3 3 2 2 2 2 2 2 1 1 1 1 1 1 1 0 0 1 1 1 1 1 1 0 1 1 0 1 2 3 3 3 3 3 4 6
5 5 4 4 3 3 3 3 2 2 2 2 2 2 1 1 1 1 1 1 1 1 1 0 0 1 1 1 1 0 1 1 2 2 1 2 3 3 3 2 3 4 5
6 5 5 4 3 3 2 2 2 2 2 1 1 2 1 1 1 1 1 1 1 1 1 1 1 1 1 1 1 0 1 1 1 2 2 2 2 3 3 4 5 4 4
6 6 5 4 3 3 3 2 2 2 1 1 1 1 1 1 1 1 1 1 1 2 2 2 2 2 1 1 1 1 1 2 2 2 3 3 3 3 2 3 3 3 3
6 6 5 4 4 3 3 3 3 2 2 2 2 2 2 1 1 1 2 2 2 2 2 3 3 5 6 4 2 2 1 1 2 2 3 3 3 2 2 1 2 2 3
6 6 6 5 5 4 4 4 4 4 4 4 3 3 3 3 5 4 2 3 2 3 3 4 5 5 6 7 8 8 5 2 2 2 3 3 3 2 2 1 1 1 2
6 6 6 5 5 5 5 5 5 5 5 4 4 4 4 5 5 4 2 3 4 4 4 4 4 5 4 5 7 7 8 8 5 3 3 3 3 2 1 2 2 2 3
6 6 5 5 5 6 6 5 5 5 5 5 5 5 5 5 5 3 2 4 5 5 5 5 5 5 5 4 6 6 7 7 6 5 5 4 4 2 1 1 1 2 3
6 6 5 5 6 6 6 6 5 6 6 5 5 5 6 5 5 3 2 6 6 6 6 6 6 6 6 4 5 6 7 7 8 9 8 6 5 4 2 1 1 1 2
6 6 6 6 6 6 6 6 6 6 6 6 6 6 6 6 6 5 3 5 6 6 6 8 10 8 7 6 6 6 6 6 5 6 6 5 5 5 3 3 2 1 2
7 7 7 6 6 7 7 6 6 6 6 6 7 6 6 6 6 6 6 3 4 5 5 6 7 8 8 8 5 6 4 2 4 5 5 5 4 4 4 4 4 3 3
8 8 7 7 6 6 7 6 6 6 7 6 6 6 5 5 6 7 8 7 5 6 5 6 7 8 9 8 6 5 2 0 3 4 4 4 4 4 4 4 4 4 4
9 8 8 7 6 6 6 6 6 5 4 5 5 5 5 5 6 8 8 8 7 6 7 9 8 6 7 7 6 3 1 2 3 3 4 4 4 4 3 3 3 2 2
9 8 7 7 7 6 4 4 4 3 4 4 4 4 5 4 4 4 5 6 7 7 7 8 7 5 4 5 4 3 3 4 3 3 4 4 3 3 2 2 1 1 1
9 8 7 7 7 6 5 4 3 4 3 2 3 3 4 4 4 4 2 4 4 5 5 5 4 4 4 4 4 3 3 3 3 3 3 2 2 2 2 2 2 2 2
8 7 6 6 6 6 7 6 11 8 9 8 7 4 6 7 7 6 6 7 5 2 2 4 4 3 3 3 3 3 3 3 2 2 2 2 2 2 2 2 2 2 2
7 7 5 6 6 6 6 7 7 6 8 8 7 7 7 7 7 6 6 5 3 2 2 3 3 2 2 3 2 3 3 3 2 2 2 2 2 1 1 2 2 2 2
8 7 6 6 6 6 6 6 6 6 6 5 6 6 6 6 6 6 6 5 4 2 2 3 2 2 2 2 2 2 2 2 1 1 2 2 2 2 2 2 2 3 3
7 6 6 5 5 5 6 6 5 6 5 6 7 7 6 7 6 5 5 4 3 3 2 2 2 2 2 2 1 1 1 1 1 1 1 2 2 2 2 3 2 1 4
6 7 6 6 6 6 6 5 5 6 5 5 5 6 7 6 5 5 4 2 2 2 2 2 2 1 1 1 1 0 0 0 0 1 1 2 2 3 3 3 3 3 3
7 7 7 6 5 5 5 5 5 5 5 5 4 4 2 4 4 4 3 2 2 2 2 1 1 1 1 1 1 0 1 0 1 2 2 2 3 3 3 3 3 4 4
6 7 6 5 5 5 5 5 4 5 5 5 5 6 4 4 3 4 3 3 3 2 2 2 1 1 1 0 0 1 1 1 1 2 2 3 3 3 4 4 4 4 4
6 6 6 5 5 5 5 5 5 5 4 4 5 5 5 4 3 3 3 3 3 2 2 1 1 1 1 1 0 1 1 1 2 2 3 3 3 4 4 4 4 5 5
6 6 6 6 6 6 5 5 5 5 5 5 5 4 4 4 4 4 3 3 3 3 2 2 1 1 1 1 0 0 2 3 3 2 4 5 4 4 4 4 5 5 5
6 6 6 5 5 5 5 5 5 5 4 4 4 4 4 4 4 4 4 3 4 3 3 2 2 2 2 2 0 2 4 3 3 5 4 4 4 4 5 5 5 5 5
6 6 5 4 4 4 4 4 4 4 4 4 4 4 4 4 4 4 4 4 4 3 3 3 3 3 3 3 3 3 3 1 1 4 6 5 4 4 5 5 6 6 6
Wind_Direction
188 191 198 196 196 200 211 216 218 223 218 222 218 215 219 213 198 197 211 195 186 191 228 252 266 298 296 293 279 266 182 179 171 117 58 68 60 66 73 76 80 77 76
173 176 178 176 176 182 189 198 198 195 203 204 191 191 201 189 180 185 192 185 182 186 163 110 26 59 52 336 336 24 135 166 166 153 117 86 80 88 87 77 74 74 77
157 158 156 158 161 164 169 176 179 180 182 183 171 167 170 175 175 169 157 154 166 138 98 93 74 72 72 57 29 92 149 156 159 147 130 104 96 86 88 81 79 74 80
146 144 140 145 145 144 145 143 142 144 141 127 123 130 130 133 123 126 123 119 116 102 82 71 61 60 61 98 90 81 101 121 121 126 121 114 100 92 86 88 88 81 64
138 134 132 132 131 135 131 122 110 108 112 107 105 97 94 99 62 68 106 106 110 107 90 83 73 66 51 44 48 62 97 117 123 121 113 104 89 85 74 69 85 83 76
136 132 129 128 125 123 118 109 104 98 93 89 88 87 79 68 52 43 67 98 99 103 99 97 98 89 84 74 62 54 45 59 73 90 97 99 86 68 57 68 65 59 68
131 130 130 128 122 116 113 111 112 105 96 87 82 83 81 64 57 59 60 101 92 83 84 88 85 85 90 93 91 86 67 53 45 48 84 78 85 71 57 80 55 36 47
133 131 129 128 124 121 116 112 107 104 101 95 87 84 83 66 51 63 85 99 88 84 82 81 83 77 64 75 88 84 78 62 52 58 70 67 70 52 30 116 142 128 126
132 132 131 129 125 123 119 111 106 104 101 97 90 86 86 75 48 40 77 100 91 83 77 70 77 84 54 59 92 90 86 86 83 80 79 86 89 78 23 49 79 128 116
130 127 124 125 125 121 116 113 109 106 104 101 91 85 83 79 53 29 19 104 100 97 89 82 69 69 60 47 85 90 86 79 81 88 92 98 97 97 84 29 20 30 77
124 122 119 119 121 119 116 113 113 110 105 100 98 92 83 75 70 42 22 82 102 100 94 87 76 65 64 51 60 78 76 81 98 94 90 83 82 80 69 56 21 7 18
123 120 117 118 120 120 117 113 114 116 116 112 107 102 95 86 66 62 51 45 46 93 90 91 91 84 77 65 66 64 54 39 93 87 82 77 71 66 65 62 53 43 34
127 121 119 118 113 117 120 123 127 130 128 125 125 119 110 104 93 79 73 64 54 79 83 86 99 112 117 97 82 65 77 84 82 85 80 74 74 72 73 86 97 93 89
130 125 125 123 118 110 111 117 119 123 123 122 121 120 116 114 112 115 116 111 109 107 109 114 117 100 99 100 120 109 76 58 50 71 74 75 78 80 66 49 48 57 72
134 133 132 126 118 111 94 63 80 76 62 96 114 119 125 123 89 60 91 115 118 113 131 137 128 121 111 100 93 83 83 92 77 71 73 73 71 70 61 47 8 354 10
144 145 143 139 133 132 124 103 54 60 65 57 48 58 85 89 103 93 82 80 83 121 174 123 114 108 103 101 102 101 91 76 64 70 64 53 46 40 38 27 3 354 360
147 146 145 144 143 145 144 140 129 96 73 67 66 69 85 108 114 116 116 115 128 210 164 116 117 113 107 100 89 80 77 72 38 43 46 37 19 6 8 355 351 347 349
149 143 149 149 151 151 150 150 146 145 139 126 103 97 110 121 131 141 151 161 152 187 146 123 122 115 105 92 86 80 79 82 63 31 31 10 345 334 338 329 339 339 328
155 151 151 150 153 152 153 153 150 147 142 140 136 128 133 138 145 165 195 197 152 150 138 124 117 112 108 106 98 95 92 81 41 336 8 346 326 317 320 314 319 329 300
146 138 153 157 155 155 159 161 156 152 151 151 151 146 153 170 164 162 188 194 163 134 128 117 106 108 124 121 133 167 159 122 161 294 341 318 315 315 311 306 312 309 304
149 149 162 167 162 161 163 163 158 159 160 159 148 127 160 185 161 153 161 160 151 134 131 131 144 158 141 140 133 196 288 295 306 311 312 306 306 305 301 299 297 298 303
154 157 167 168 166 166 162 163 165 165 164 161 148 147 179 206 162 155 155 159 158 154 156 170 167 137 104 96 141 265 271 305 328 320 312 305 296 293 294 295 300 306 306
157 159 162 163 162 154 171 172 170 168 164 161 160 161 174 188 172 167 164 159 159 157 152 162 182 171 145 149 263 307 326 344 337 326 307 298 298 296 294 296 295 295 300
160 163 162 160 164 172 171 170 172 169 168 168 169 172 176 181 183 181 184 176 174 169 172 181 185 176 169 188 210 2 30 1 324 304 305 302 299 299 300 298 296 301 298
161 162 162 165 169 171 171 174 173 171 173 175 179 183 184 186 187 187 187 182 181 180 187 192 191 190 197 207 153 65 65 33 342 322 289 283 293 300 303 300 301 301 301
159 162 163 164 167 171 174 176 176 178 180 180 182 187 194 193 192 190 190 188 189 186 188 185 189 199 204 192 144 124 130 156 292 304 292 283 288 298 306 297 299 296 297